Location: Cortada Guamacho
(10.5667°N, 67.0833°W)
Time: 02:51:46
(UTC+00:00)

SWIFT - Pass Details

Date: 09 July 2022
Orbit: 539 x 553 km, 20.6° (Epoch: 13 August)

Event Time Altitude Azimuth Distance (km) Brightness Sun altitude
Rises 00:41:29 0° 285° (WNW) 2,707 7.1 -24.3°
Reaches altitude 10° 00:44:09 10° 301° (WNW) 1,813 6.0 -24.9°
Maximum altitude 00:47:30 23° 354° (N) 1,196 4.4 -25.6°
Enters shadow 00:48:36 20° 16° (NNE) 1,274 4.3 -25.8°
